| time (UTC) | temp C | wind direction | speed KPH | gust KPH | rain 1hr cm | rain 24hr cm | rain mn cm | humidity % | barometer mb |
| 20260505041334 | 8 | 190 | 25.7 | 35.4 | 0.00 | 0.00 | 0.00 | 78 | 1007.0 |
| 20260505040339 | 8 | 190 | 25.7 | 35.4 | 0.00 | 0.00 | 0.00 | 78 | 1006.9 |
| 20260505035441 | 8 | 207 | 25.7 | 37.0 | 0.00 | 0.00 | 0.00 | 78 | 1006.7 |
| 20260505033852 | 8 | 195 | 25.7 | 37.0 | 0.00 | 0.00 | 0.00 | 78 | 1006.5 |
| 20260505033343 | 8 | 207 | 24.1 | 37.0 | 0.00 | 0.00 | 0.00 | 77 | 1006.5 |
| 20260505032354 | 8 | 207 | 27.4 | 35.4 | 0.00 | 0.00 | 0.00 | 77 | 1006.3 |
| 20260505031410 | 8 | 212 | 25.7 | 38.6 | 0.00 | 0.00 | 0.00 | 77 | 1006.1 |
| 20260505030900 | 8 | 217 | 27.4 | 38.6 | 0.00 | 0.00 | 0.00 | 77 | 1006.2 |
| 20260505025915 | 8 | 236 | 27.4 | 37.0 | 0.00 | 0.00 | 0.00 | 76 | 1006.0 |
| 20260505025338 | 8 | 203 | 27.4 | 38.6 | 0.00 | 0.00 | 0.00 | 76 | 1005.8 |
| 20260505024835 | 8 | 225 | 25.7 | 38.6 | 0.00 | 0.00 | 0.00 | 76 | 1005.8 |
| 20260505023849 | 8 | 227 | 27.4 | 37.0 | 0.00 | 0.00 | 0.00 | 76 | 1005.9 |
| 20260505023348 | 8 | 200 | 27.4 | 37.0 | 0.00 | 0.00 | 0.00 | 76 | 1005.8 |
| 20260505022403 | 8 | 173 | 25.7 | 38.6 | 0.00 | 0.00 | 0.00 | 76 | 1005.6 |
| 20260505021839 | 8 | 207 | 24.1 | 32.2 | 0.00 | 0.00 | 0.00 | 76 | 1005.6 |
| 20260505020917 | 8 | 207 | 24.1 | 35.4 | 0.00 | 0.00 | 0.00 | 76 | 1005.4 |
| 20260505020405 | 8 | 200 | 25.7 | 38.6 | 0.00 | 0.00 | 0.00 | 76 | 1005.4 |
| 20260505015856 | 8 | 244 | 27.4 | 38.6 | 0.00 | 0.00 | 0.00 | 76 | 1005.3 |
| 20260505015339 | 8 | 232 | 22.5 | 37.0 | 0.00 | 0.00 | 0.00 | 76 | 1005.4 |
| 20260505014352 | 8 | 212 | 20.9 | 37.0 | 0.00 | 0.00 | 0.00 | 76 | 1005.4 |
| 20260505013419 | 8 | 236 | 25.7 | 37.0 | 0.00 | 0.00 | 0.00 | 77 | 1005.2 |
| 20260505012405 | 8 | 193 | 24.1 | 38.6 | 0.00 | 0.00 | 0.00 | 77 | 1005.2 |
| 20260505011405 | 8 | 224 | 25.7 | 37.0 | 0.00 | 0.00 | 0.00 | 77 | 1005.0 |
| 20260505010907 | 8 | 207 | 27.4 | 40.2 | 0.00 | 0.00 | 0.00 | 77 | 1004.9 |
| 20260505005916 | 8 | 258 | 30.6 | 43.5 | 0.00 | 0.00 | 0.00 | 77 | 1004.7 |
| 20260505004854 | 8 | 212 | 27.4 | 43.5 | 0.00 | 0.00 | 0.00 | 79 | 1004.8 |
| 20260505003912 | 8 | 227 | 25.7 | 37.0 | 0.00 | 0.00 | 0.00 | 77 | 1004.8 |
| 20260505002909 | 8 | 225 | 27.4 | 37.0 | 0.00 | 0.00 | 0.00 | 78 | 1004.6 |
| 20260505001414 | 8 | 198 | 29.0 | 37.0 | 0.00 | 0.00 | 0.00 | 77 | 1004.4 |
| 20260505000413 | 9 | 230 | 29.0 | 40.2 | 0.00 | 0.00 | 0.00 | 75 | 1004.2 |
| 20260504235912 | 9 | 246 | 29.0 | 38.6 | 0.00 | 0.00 | 0.00 | 77 | 1004.2 |
| 20260504235042 | 8 | 224 | 30.6 | 41.8 | 0.00 | 0.00 | 0.00 | 78 | 1004.0 |
| 20260504234405 | 8 | 234 | 29.0 | 37.0 | 0.00 | 0.00 | 0.00 | 79 | 1003.9 |
| 20260504233416 | 8 | 237 | 24.1 | 38.6 | 0.00 | 0.00 | 0.00 | 78 | 1003.9 |
| 20260504232908 | 8 | 233 | 30.6 | 38.6 | 0.00 | 0.00 | 0.00 | 78 | 1003.7 |
| 20260504231914 | 8 | 238 | 27.4 | 38.6 | 0.00 | 0.00 | 0.00 | 78 | 1003.7 |
| 20260504230936 | 8 | 261 | 30.6 | 40.2 | 0.00 | 0.00 | 0.00 | 77 | 1003.4 |
| 20260504230404 | 8 | 231 | 30.6 | 40.2 | 0.00 | 0.00 | 0.00 | 78 | 1003.4 |
| 20260504225431 | 7 | 277 | 24.1 | 35.4 | 0.00 | 0.00 | 0.00 | 80 | 1003.4 |
| 20260504224428 | 6 | 207 | 16.1 | 27.4 | 0.00 | 0.00 | 0.00 | 79 | 1003.4 |
| 20260504223407 | 7 | 258 | 24.1 | 35.4 | 0.00 | 0.00 | 0.00 | 77 | 1003.2 |
| 20260504222858 | 7 | 272 | 27.4 | 35.4 | 0.00 | 0.00 | 0.00 | 76 | 1003.2 |
| 20260504221905 | 7 | 263 | 27.4 | 43.5 | 0.00 | 0.00 | 0.00 | 73 | 1003.4 |
| 20260504221403 | 8 | 238 | 32.2 | 49.9 | 0.00 | 0.00 | 0.00 | 68 | 1003.3 |
| 20260504220420 | 8 | 248 | 29.0 | 38.6 | 0.00 | 0.00 | 0.00 | 68 | 1002.9 |
| 20260504215412 | 8 | 248 | 29.0 | 35.4 | 0.00 | 0.00 | 0.00 | 67 | 1002.7 |
| 20260504214414 | 8 | 251 | 25.7 | 32.2 | 0.00 | 0.00 | 0.00 | 69 | 1002.3 |
| 20260504213855 | 8 | 234 | 25.7 | 38.6 | 0.00 | 0.00 | 0.00 | 68 | 1002.3 |
| 20260504212910 | -17 | 0.0 | 0.0 | 0.00 | 0.00 | 0.00 | 1002.3 | ||
| 20260504211911 | -17 | 0.0 | 0.0 | 0.00 | 0.00 | 0.00 | 1002.2 | ||
| 20260504210416 | -17 | 0.0 | 0.0 | 0.00 | 0.00 | 0.00 | 1002.3 | ||
| 20260504205429 | -17 | 0.0 | 0.0 | 0.00 | 0.00 | 0.00 | 1002.1 | ||
| 20260504204433 | -17 | 0.0 | 0.0 | 0.00 | 0.00 | 0.00 | 1001.9 | ||
| 20260504203407 | -17 | 0.0 | 0.0 | 0.00 | 0.00 | 0.00 | 1001.8 | ||
| 20260504202417 | -17 | 0.0 | 0.0 | 0.00 | 0.00 | 0.00 | 1001.7 | ||
| 20260504201423 | -17 | 0.0 | 0.0 | 0.00 | 0.00 | 0.00 | 1001.6 | ||
| 20260504200420 | -17 | 0.0 | 0.0 | 0.00 | 0.00 | 0.00 | 1001.3 | ||
| 20260504195411 | -17 | 0.0 | 0.0 | 0.00 | 0.00 | 0.00 | 1001.3 | ||
| 20260504194845 | -17 | 0.0 | 0.0 | 0.00 | 0.00 | 0.00 | 1001.4 | ||
| 20260504193919 | -17 | 0.0 | 0.0 | 0.00 | 0.00 | 0.00 | 1001.4 | ||
| 20260504192915 | -17 | 0.0 | 0.0 | 0.00 | 0.00 | 0.00 | 1001.2 | ||
| 20260504191925 | -17 | 0.0 | 0.0 | 0.00 | 0.00 | 0.00 | 1001.3 | ||
| 20260504190920 | -17 | 0.0 | 0.0 | 0.00 | 0.00 | 0.00 | 1001.1 | ||
| 20260504185914 | -17 | 0.0 | 0.0 | 0.00 | 0.00 | 0.00 | 1001.3 | ||
| 20260504184906 | -17 | 0.0 | 0.0 | 0.00 | 0.00 | 0.00 | 1001.2 | ||
| 20260504183915 | -17 | 0.0 | 0.0 | 0.00 | 0.00 | 0.00 | 1001.3 | ||
| 20260504182920 | -17 | 0.0 | 0.0 | 0.00 | 0.00 | 0.00 | 1001.1 | ||
| 20260504181930 | -17 | 0.0 | 0.0 | 0.00 | 0.00 | 0.00 | 1001.1 | ||
| 20260504180914 | -17 | 0.0 | 0.0 | 0.00 | 0.00 | 0.00 | 1001.1 | ||
| 20260504175916 | -17 | 0.0 | 0.0 | 0.00 | 0.00 | 0.00 | 1000.9 | ||
| 20260504174426 | -17 | 0.0 | 0.0 | 0.00 | 0.00 | 0.00 | 1000.7 | ||
| 20260504173423 | -17 | 0.0 | 0.0 | 0.00 | 0.00 | 0.00 | 1000.7 | ||
| 20260504172430 | -17 | 0.0 | 0.0 | 0.00 | 0.00 | 0.00 | 1000.5 | ||
| 20260504171427 | -17 | 0.0 | 0.0 | 0.00 | 0.00 | 0.00 | 1000.4 | ||
| 20260504170420 | -17 | 0.0 | 0.0 | 0.00 | 0.00 | 0.00 | 1000.4 | ||
| 20260504160425 | -17 | 0.0 | 0.0 | 0.00 | 0.00 | 0.00 | 999.4 | ||
| 20260504150430 | -17 | 0.0 | 0.0 | 0.00 | 0.00 | 0.00 | 999.2 | ||
| 20260504140424 | -17 | 0.0 | 0.0 | 0.00 | 0.00 | 0.00 | 998.1 | ||
| 20260504130418 | -17 | 0.0 | 0.0 | 0.00 | 0.00 | 0.00 | 996.7 | ||
| 20260504110425 | 3 | 271 | 45.1 | 59.5 | 0.00 | 0.00 | 0.00 | 93 | 994.4 |
| 20260504100424 | 3 | 276 | 51.5 | 70.8 | 0.00 | 0.00 | 0.00 | 93 | 992.6 |
| 20260504081855 | 2 | 279 | 67.6 | 88.5 | 0.00 | 0.00 | 0.00 | 93 | 988.3 |
| 20260504080904 | 2 | 274 | 62.8 | 85.3 | 0.00 | 0.00 | 0.00 | 94 | 987.8 |
| 20260504080354 | 2 | 271 | 61.2 | 85.3 | 0.00 | 0.00 | 0.00 | 94 | 987.6 |
| 20260504070337 | 2 | 286 | 49.9 | 66.0 | 0.00 | 0.00 | 0.00 | 95 | 984.8 |
| 20260504045851 | 2 | 281 | 35.4 | 41.8 | 0.00 | 0.00 | 0.00 | 95 | 979.8 |